User: anonymous   Login
Location: Goheenville
(40.9070°N, 79.3720°W)
Time: 08:20:39
(UTC-05:00)
Language:

Meteor 2-10 Rocket - Orbit

View from above orbital plane
View from above orbital plane
View from above satellite
View from above satellite

Ground track
Ground track

The orbit data is extracted from the following two-line orbital elements,

1 14453U 83109B   17326.89848227  .00000036  00000-0  10006-4 0  9995
2 14453  81.1651 306.6348 0104429 325.0812  34.3545 14.24684577770121
Epoch (UTC): 22 November 2017 21:33:48
Eccentricity: 0.0104429
inclination: 81.1651°
perigee height: 734 km
apogee height: 884 km
right ascension of ascending node: 306.6348°
argument of perigee: 325.0812°
revolutions per day: 14.24684577
mean anomaly at epoch: 34.3545°
orbit number at epoch: 77012

The dashed part of the orbit path shows where the satellite is in the earth's shadow,  

DLR